Location: Apfelthal
(48.8738°N, 10.9745°E)
Time: 03:07:36
(UTC+00:00)

Daily predictions for brighter satellites

Satellite Brightness Start Highest point End
(mag) Time Altitude Azimuth Time Altitude Azimuth Time Altitude Azimuth
ADEOS II 4.4 00:00:55 10° NE 00:03:47 15° E 00:06:40 10° ESE
Cosmos 1553 Rocket 4.3 00:03:21 29° SW 00:06:22 56° WNW 00:12:29 10° N
NOSS 2-2 (D) 4.2 00:01:33 10° NW 00:06:33 70° SW 00:11:37 19° SSE
Cosmos 1461 3.8 00:03:00 10° NW 00:06:31 31° WSW 00:06:31 31° WSW
Gblst 52 Del rocket 4.4 00:01:43 10° W 00:07:51 74° NNW 00:13:26 10° ENE
Cosmos 1867 3.7 00:05:01 28° SW 00:07:58 73° NW 00:13:29 10° NE
Cosmos 1674 Rocket 3.7 00:06:55 41° SW 00:08:12 60° WNW 00:12:30 10° N
Cosmos 2221 Rocket 4.3 00:06:47 32° WSW 00:08:14 42° WNW 00:12:27 10° N
Cosmos 2298 Rocket 4.0 00:07:41 37° SSW 00:09:53 84° ESE 00:15:13 10° NNE
Cosmos 1674 3.8 00:10:51 28° W 00:11:43 31° WNW 00:15:07 10° N
USA 306 3.1 00:11:53 45° SSE 00:12:24 48° SE 00:16:26 10° ENE
Cosmos 1238 Rocket 3.7 00:09:56 10° NNW 00:12:06 25° W 00:12:06 25° W
Thor Agena Rocket 4.0 00:07:53 10° NNE 00:13:04 54° E 00:15:34 29° SSE
ATLAS CENTAUR R/B 3.6 00:11:38 10° WNW 00:13:59 15° WSW 00:13:59 15° WSW
USA 307 3.2 00:15:20 43° SSE 00:15:51 45° SE 00:19:53 10° ENE
SL-16 R/B 3.7 00:16:08 17° SE 00:19:04 26° ESE 00:23:40 10° NE
ERBS 3.0 00:22:52 34° ESE 00:22:52 34° ESE 00:25:16 10° ENE
ATLAS 5 CENTAUR R/B 3.1 00:11:44 10° NW 00:23:00 46° WSW 00:24:40 33° SSW
Cosmos 1980 3.7 00:20:38 33° SSW 00:23:17 79° ESE 00:28:57 10° NNE
CZ-4C R/B 3.5 00:16:51 10° NW 00:23:43 42° WSW 00:27:53 26° S
Cosmos 1455 Rocket 3.4 00:19:21 10° N 00:23:47 62° ENE 00:26:09 26° SSE
Cosmos 1378 Rocket 4.2 00:22:19 32° WSW 00:23:51 44° WNW 00:28:07 10° N
Cosmos 2333 Rocket 3.7 00:19:42 11° WSW 00:24:21 31° NW 00:29:22 10° NNE
USA 215 3.9 00:19:14 10° ENE 00:25:35 55° NNW 00:31:56 10° W
Cosmos 332 Rocket 4.0 00:28:23 33° S 00:30:22 63° ESE 00:35:07 10° NNE
NOSS 0 Rocket 4.0 00:29:22 27° SW 00:32:56 78° WNW 00:39:14 10° NNE
USA 32 4.1 00:35:15 31° SSW 00:37:44 70° W 00:43:00 10° N
Meteor 2-10 Rocket 3.6 00:32:31 10° NNW 00:38:13 75° W 00:41:17 27° S
Meteor 1-24 Rocket 4.3 00:34:53 21° SSE 00:38:23 50° E 00:43:38 10° NNE
Cosmos 1975 Rocket 3.1 00:39:39 32° S 00:41:37 76° E 00:46:06 10° NNE
Cosmos 839 Rocket 4.4 00:37:54 10° NW 00:44:02 50° WSW 00:49:12 19° S
USA 308 2.8 00:44:46 35° SW 00:46:23 70° SSE 00:50:34 10° ENE
Cosmos 2219 Rocket 3.8 00:42:59 10° WSW 00:47:40 27° NW 00:52:25 10° NNE
MOS 1 Rocket 4.1 00:44:05 11° SE 00:48:02 43° ENE 00:52:07 10° N
Cosmos 1025 Rocket 3.1 00:47:03 30° S 00:49:06 73° E 00:53:24 10° NNE
Cosmos 1455 3.2 00:46:21 10° N 00:49:54 41° ENE 00:52:38 15° SE
Cosmos 1269 Rocket 4.0 00:45:27 10° NNW 00:50:46 89° WSW 00:55:07 16° SSE
GP-B 3.5 00:51:55 10° N 00:56:13 49° W 00:58:07 29° SW
CZ-2D R/B 2.3 00:53:39 10° NNE 00:59:04 71° ESE 01:02:28 23° S
Meteor 2-5 Rocket 3.8 00:55:38 24° S 00:59:15 84° E 01:04:57 10° NNE
Cosmos 1300 3.8 00:57:20 10° NNW 01:00:38 28° W 01:01:27 26° WSW
Lacrosse 5 2.4 00:58:31 26° S 01:00:54 45° SE 01:05:45 10° ENE
USA 267 4.4 01:02:15 20° SW 01:02:55 21° SW 01:07:37 10° WNW
Cosmos 371 Rocket 4.3 01:06:03 19° WSW 01:09:00 36° WNW 01:13:30 10° N
USA 305 2.9 01:07:08 21° WSW 01:09:52 78° NNW 01:14:04 10° ENE
Cosmos 1544 Rocket 3.5 01:05:43 10° N 01:10:10 86° W 01:13:09 20° S
BREEZE-M DEB (TANK) 4.2 00:58:25 10° WSW 01:13:04 85° SSE 01:17:04 10° ENE
Cosmos 2237 Rocket 2.8 01:11:28 19° SW 01:15:21 50° NW 01:20:56 10° NNE
COSMOS 2428 4.4 01:12:55 10° W 01:17:30 24° NW 01:22:06 10° N
AQUA 4.0 01:13:38 10° NNE 01:18:24 68° ESE 01:21:49 19° S
SL-16 R/B 2.5 01:14:42 13° S 01:20:17 72° WSW 01:26:33 10° NNW
Helios 1A 3.4 01:17:11 10° SSE 01:21:20 64° ENE 01:25:33 10° N
SAR-Lupe-2 3.7 01:18:26 10° NNE 01:22:02 68° ESE 01:24:09 23° S
Lacrosse 5 rocket 2.0 01:21:54 24° S 01:23:42 38° SE 01:27:29 10° ENE
SME Rocket 4.2 01:24:35 22° SW 01:26:15 30° W 01:30:40 10° NNW
Resurs 1-4 Rocket 2.2 01:22:59 10° N 01:28:13 67° WNW 01:31:56 20° SSW
Cosmos 2074 Rocket 4.0 01:22:04 10° NNW 01:28:21 71° W 01:33:59 13° S
Cosmos 1943 Rocket 2.3 01:27:50 10° NW 01:33:24 55° WSW 01:38:53 10° S
Cosmos 2297 3.7 01:27:40 10° NNW 01:33:24 70° WSW 01:39:06 10° SSE
Cosmos 1703 3.9 01:35:52 13° S 01:39:16 53° E 01:43:07 10° NNE
CRYOSAT 2 4.4 01:38:46 15° S 01:42:48 66° W 01:47:40 10° N
Cosmos 2184 Rocket 4.2 01:37:03 10° NNW 01:43:11 57° W 01:48:45 12° SSW
Cosmos 2278 Rocket 3.9 01:41:00 10° WNW 01:43:46 14° W 01:45:23 12° WSW
ADEOS II 2.1 01:38:54 10° NNE 01:44:12 88° WNW 01:48:40 15° SSW
IDEFIX/ARIANE 42P 2.7 01:39:48 10° NNE 01:45:06 81° ESE 01:49:52 13° SSW
Cosmos 1610 Rocket 4.4 01:40:53 10° NNW 01:47:03 79° W 01:53:10 10° S
USA 306 3.5 01:47:53 10° W 01:51:59 54° NNW 01:56:06 10° ENE
Cosmos 2084 Rocket 3.7 01:49:15 15° WSW 01:52:10 50° NW 01:55:54 10° NE
Cosmos 292 Rocket 3.9 01:48:10 15° SSW 01:52:12 74° ESE 01:57:00 10° NNE
USA 307 3.4 01:51:20 10° W 01:55:27 56° NNW 01:59:36 10° ENE
NPP 4.1 01:50:58 10° N 01:56:10 49° WNW 02:00:36 14° SW
ERBS 3.4 01:54:56 10° W 01:57:46 34° NNW 02:00:38 10° NE
Cosmos 2369 Rocket 2.1 01:53:06 10° NNW 01:58:45 84° WSW 02:04:20 10° SSE
Gblst 52 Del rocket 4.4 01:54:08 10° WNW 01:59:55 75° NNE 02:05:24 10° E
IRS-1D 3.9 01:56:44 10° NNE 02:02:06 70° ESE 02:07:22 10° S
Cosmos 2228 3.0 01:57:45 10° NNW 02:02:08 77° W 02:06:28 10° S
Cosmos 614 Rocket 4.2 01:57:12 10° NNW 02:02:13 50° WSW 02:07:14 10° S
EO 1 Del DPAF 3.1 01:58:55 10° N 02:02:24 64° WNW 02:05:16 14° SSW
SL-16 R/B 2.5 01:58:00 14° SW 02:02:47 59° WNW 02:08:25 10° NNE
Cosmos 2251 Rocket 3.5 01:59:01 10° NNW 02:04:18 77° WSW 02:09:34 10° SSE
Meteor 1-28 Rocket 3.8 02:03:36 13° SSW 02:06:34 36° W 02:10:03 10° NNW
USA 215 4.4 02:01:52 10° ENE 02:07:58 44° N 02:14:05 10° WNW
Cosmos 1656 Rocket 3.6 02:02:41 10° NNW 02:08:08 88° WSW 02:13:34 10° SSE
Cosmos 2058 Rocket 4.4 02:05:45 10° N 02:09:56 41° ENE 02:14:04 10° SE
COSMOS 2455 2.9 02:04:48 13° SSW 02:10:19 88° SE 02:16:24 10° NE
Cosmos 1536 Rocket 4.1 02:08:03 13° SSW 02:11:44 45° WNW 02:15:58 10° N
COSMOS 2441 4.4 02:12:32 10° NNE 02:17:26 85° WNW 02:22:16 10° SSW
Cosmos 1408 4.4 02:17:35 10° SSE 02:20:48 30° E 02:24:00 10° NNE
Nadezhda 1 Rocket 4.4 02:15:05 10° SSW 02:21:15 52° WNW 02:27:23 10° N
MSX 3.9 02:16:23 10° N 02:22:08 70° WNW 02:27:52 10° SSW
Cosmos 1455 4.0 02:22:44 10° NW 02:25:02 16° W 02:27:21 10° SW
USA 308 3.8 02:22:10 10° W 02:26:13 46° NNW 02:30:16 10° ENE
Cosmos 1603 4.2 02:20:45 10° S 02:26:16 59° ESE 02:31:51 10° NE
MOS 1 Rocket 4.5 02:23:22 10° SW 02:26:31 21° W 02:29:48 10° NW
Cosmos 1271 Rocket 3.9 02:25:53 10° NW 02:29:05 26° W 02:32:18 10° SSW
Cosmos 1606 Rocket 3.7 02:28:57 10° NNW 02:33:17 55° W 02:37:33 10° S
ALOS 3.2 02:31:58 10° NNE 02:36:32 49° E 02:41:02 10° S
CZ-2D R/B 3.7 02:34:35 10° N 02:38:34 22° WNW 02:42:31 10° WSW
CZ-2C R/B 3.3 02:33:39 10° NNE 02:38:41 52° E 02:43:33 10° S
Helios 1B rocket 2.4 02:39:17 10° NNE 02:43:23 89° WNW 02:47:26 10° SSW
Lacrosse 5 2.5 02:38:50 10° WSW 02:43:52 55° NNW 02:48:53 10° NE
Cosmos 2366 rocket 4.0 02:39:21 10° NNW 02:45:32 78° W 02:51:42 10° S
Cosmos 2341 Rocket 4.2 02:39:46 10° NNW 02:45:59 56° W 02:52:12 10° SSW
